Regional Weather Roundup
Issued by NWS

Home | Current Version | Previous Version | Text Only | Print | Product List | Glossary Off
Versions: 1 2 3 4 5 6 7 8 9 10 11 12 13 14 15 16 17 18 19 20 21 22 23 24 25 26 27 28 29 30 31 32 33 34 35 36 37 38 39 40 41 42 43 44 45 46 47 48 49 50

249
ASUS43 KLMK 292110
RWRKY
KENTUCKY REGIONAL WEATHER ROUNDUP
NATIONAL WEATHER SERVICE LOUISVILLE KY
500 PM EDT THU SEP 29 2016

NOTE "FAIR" INDICATES FEW OR NO CLOUDS BELOW 12,000 FEET
WITH NO SIGNIFICANT WEATHER AND/OR OBSTRUCTIONS TO VISIBILITY.

KYZ001>023-026-027-061>063-070>075-292200-
WESTERN AND SOUTH CENTRAL KENTUCKY

CITY           SKY/WX    TMP DP  RH WIND       PRES   REMARKS
PADUCAH        CLOUDY    67  55  65 NW7       30.10S
HENDERSON      CLOUDY    64  50  59 NE6       30.08S
OWENSBORO      PTSUNNY  N/A N/A N/A N9        30.08S
HOPKINSVILLE   MOSUNNY   62  53  71 N6        30.09S
BOWLING GREEN  CLOUDY    63  52  67 W9        30.08S
GLASGOW        PTSUNNY   65  49  56 NW7       30.07S
$$

KYZ024-025-028>034-038-045-046-053-292200-
NORTH CENTRAL KENTUCKY

CITY           SKY/WX    TMP DP  RH WIND       PRES   REMARKS
LOUISVILLE/SDF PTSUNNY   64  51  62 N5        30.06F
LOUISVILLE/LOU PTSUNNY   64  51  62 CALM      30.07S
FORT KNOX      LGT RAIN  57  55  94 W5        30.07R
$$

KYZ035>037-039>044-047>052-055>060-089>105-292200-
NORTHEAST KENTUCKY

CITY           SKY/WX    TMP DP  RH WIND       PRES   REMARKS
LEXINGTON      MOSUNNY   61  52  72 N7        30.06S
COVINGTON      PTSUNNY   64  53  67 E12       30.07R
FRANKFORT      PTSUNNY   64  49  57 CALM      30.04F
$$

KYZ054-064>069-076>088-106>120-292200-
SOUTHEAST KENTUCKY

CITY           SKY/WX    TMP DP  RH WIND       PRES   REMARKS
JACKSON        CLOUDY    57  53  86 CALM      30.06R
LONDON         CLOUDY    62  48  60 N5        30.05S
SOMERSET       CLOUDY    61  45  55 W6        30.07S
MIDDLESBORO    MOSUNNY   64  51  61 NW7       30.04F
MONTICELLO     CLOUDY    60  50  69 W13       30.08S
$$





USA.gov is the U.S. government's official web portal to all federal, state and local government web resources and services.